Luz, Portugal

2:27 AM WEST on July 26, 2017 (GMT +0100)
Luz

Weather History for 08554 - October, 2013

Change the Weather History Date:

Sunday, October 6, 2013

  Actual Average Record
Temperature  
Mean Temperature 72 °F -  
Max Temperature 79 °F 70 °F - ()
Min Temperature 66 °F 57 °F - ()
Cooling Degree Days 8    
Growing Degree Days 22 (Base 50)    
Moisture  
Dew Point 57 °F    
Average Humidity 57    
Maximum Humidity 78    
Minimum Humidity 29    
Precipitation  
Precipitation 0.00 in 0.09 in - ()
Sea Level Pressure  
Sea Level Pressure 30.10 in    
Wind  
Wind Speed 7 mph ()    
Max Wind Speed 10 mph    
Max Gust Speed -    
Visibility 12.0 miles    
Events      
T = Trace of Precipitation, MM = Missing Value Source: Averaged Metar Reports

Daily Weather History Graph

Daily Weather History Graph

Search for Another Location

Airport or City:

Trip Planner

Search our weather history database for the weather conditions in past years. The results will help you decide how hot, cold, wet, or windy it might be!

Date:

Astronomy

Oct. 06, 2013 Rise Set
Actual Time 7:31 AM WEST 7:07 PM WEST
Civil Twilight 7:05 AM WEST 7:33 PM WEST
Nautical Twilight 6:35 AM WEST 8:03 PM WEST
Astronomical Twilight 6:05 AM WEST 8:33 PM WEST
Moon 8:58 AM WEST (10/6) 8:00 PM WEST (10/6)
Length of Visible Light 12h 28m
Length of Day
11h 36m
New Moon, 2% of the Moon is Illuminated
Oct 6
New Moon
Oct 12
First Quarter
Oct 19
Full
Oct 27
Last Quarter
Nov 3
New

Hourly Weather History & Observations

Time (WEST) Temp. Dew Point Humidity Pressure Visibility Wind Dir Wind Speed Gust Speed Precip Events Conditions
12:00 AM 69.8 °F 57.2 °F 64% 30.15 in - North 9.2 mph - N/A   Clear
12:30 AM 69.8 °F 55.4 °F 60% 30.12 in - North 9.2 mph - N/A   Clear
1:00 AM 71 °F 54 °F 45% 30.16 in - North 6.7 mph - -  
1:00 AM 69.8 °F 55.4 °F 60% 30.12 in - North 9.2 mph - N/A   Clear
1:30 AM 69.8 °F 55.4 °F 60% 30.12 in - North 9.2 mph - N/A   Clear
2:00 AM 69.8 °F 55.4 °F 60% 30.12 in - North 10.4 mph - N/A   Clear
2:30 AM 69.8 °F 55.4 °F 60% 30.12 in - North 9.2 mph - N/A   Clear
3:00 AM 69.8 °F 55.4 °F 60% 30.12 in - North 9.2 mph - N/A   Clear
3:30 AM 69.8 °F 55.4 °F 60% 30.12 in - North 10.4 mph - N/A   Clear
4:00 AM 70 °F 54 °F 46% 30.14 in - North 6.7 mph - -  
4:00 AM 69.8 °F 55.4 °F 60% 30.12 in - North 9.2 mph - N/A   Clear
4:30 AM 69.8 °F 55.4 °F 60% 30.09 in - NNE 6.9 mph - N/A   Clear
5:00 AM 69.8 °F 55.4 °F 60% 30.09 in - NNE 6.9 mph - N/A   Clear
5:30 AM 69.8 °F 55.4 °F 60% 30.09 in - NNE 8.1 mph - N/A   Clear
6:00 AM 69.8 °F 53.6 °F 56% 30.09 in - NNE 6.9 mph - N/A   Clear
6:30 AM 69.8 °F 53.6 °F 56% 30.09 in - NNE 8.1 mph - N/A   Clear
7:00 AM 69 °F 52 °F 44% 30.12 in - North 4.5 mph - -  
7:00 AM 68.0 °F 53.6 °F 60% 30.09 in - North 5.8 mph - N/A   Clear
7:30 AM 68.0 °F 53.6 °F 60% 30.09 in - NNE 4.6 mph - N/A   Clear
8:00 AM 66.2 °F 57.2 °F 73% 30.09 in - SE 5.8 mph - N/A   Clear
8:30 AM 69.8 °F 55.4 °F 60% 30.09 in - NE 3.5 mph - N/A   Clear
9:00 AM 71.6 °F 55.4 °F 57% 30.12 in - Variable 2.3 mph - N/A   Clear
9:30 AM 73.4 °F 55.4 °F 53% 30.12 in - East 3.5 mph - N/A   Clear
10:00 AM 77 °F 53 °F 33% 30.15 in 12 mi 2.2 mph - -   Clear
10:00 AM 77.0 °F 55.4 °F 47% 30.12 in - Variable 2.3 mph - N/A   Clear
10:30 AM 77.0 °F 53.6 °F 44% 30.12 in - Variable 2.3 mph - N/A   Clear
11:00 AM 78.8 °F 55.4 °F 44% 30.12 in - South 4.6 mph - N/A   Clear
11:30 AM 75.2 °F 57.2 °F 53% 30.12 in - South 5.8 mph - N/A   Clear
12:00 PM 77.0 °F 59.0 °F 54% 30.12 in - South 5.8 mph - N/A   Clear
12:30 PM 77.0 °F 60.8 °F 57% 30.12 in - South 8.1 mph - N/A   Clear
1:00 PM 78 °F 52 °F 29% 30.15 in 12 mi East 6.7 mph - -   Clear
1:00 PM 77.0 °F 57.2 °F 50% 30.12 in - ESE 10.4 mph - N/A   Clear
1:30 PM 77.0 °F 53.6 °F 44% 30.12 in - SE 8.1 mph - N/A   Clear
2:00 PM 78.8 °F 55.4 °F 44% 30.09 in - ESE 8.1 mph - N/A   Clear
2:30 PM 77.0 °F 57.2 °F 50% 30.09 in - SE 8.1 mph - N/A   Clear
3:00 PM 75.2 °F 59.0 °F 57% 30.09 in - South 6.9 mph - N/A   Clear
3:30 PM 75.2 °F 59.0 °F 57% 30.06 in - SSE 6.9 mph - N/A   Clear
4:00 PM 76 °F 56 °F 40% 30.09 in 12 mi South 4.5 mph - -   Clear
4:00 PM 75.2 °F 59.0 °F 57% 30.06 in - South 5.8 mph - N/A   Clear
4:30 PM 75.2 °F 60.8 °F 61% 30.06 in - South 5.8 mph - N/A   Clear
5:00 PM 75.2 °F 62.6 °F 65% 30.06 in - SSE 5.8 mph - N/A   Clear
5:30 PM 75.2 °F 60.8 °F 61% 30.06 in - South 4.6 mph - N/A   Clear
6:00 PM 73.4 °F 62.6 °F 69% 30.06 in - WSW 6.9 mph - N/A   Clear
6:30 PM 73.4 °F 62.6 °F 69% 30.06 in - WSW 8.1 mph - N/A   Clear
7:00 PM 72 °F 60 °F 57% 30.09 in 12 mi South 6.7 mph - -   Clear
7:00 PM 71.6 °F 62.6 °F 73% 30.06 in - West 5.8 mph - N/A   Clear
7:30 PM 71.6 °F 64.4 °F 78% 30.06 in - West 5.8 mph - N/A   Clear
8:00 PM 71.6 °F 62.6 °F 73% 30.06 in - NW 5.8 mph - N/A   Clear
8:30 PM 69.8 °F 62.6 °F 78% 30.06 in - NNW 8.1 mph - N/A   Clear
9:00 PM 69.8 °F 62.6 °F 78% 30.06 in - NNW 6.9 mph - N/A   Clear
9:30 PM 69.8 °F 60.8 °F 73% 30.06 in - North 6.9 mph - N/A   Clear
10:00 PM 71 °F 53 °F 43% 30.10 in 12 mi NNW 4.5 mph - -  
10:00 PM 69.8 °F 55.4 °F 60% 30.06 in - North 4.6 mph - N/A   Clear
10:30 PM 69.8 °F 55.4 °F 60% 30.06 in - North 3.5 mph - N/A   Clear
11:00 PM 69.8 °F 55.4 °F 60% 30.06 in - North 3.5 mph - N/A   Clear
11:30 PM 71.6 °F 57.2 °F 60% 30.06 in - North 4.6 mph - N/A   Clear